Location: Haliburton Scout Reserve
(45.0900°N, 78.3200°W)
Time: 03:00:51
(UTC-04:00)

N. Korean satellite - Visible Passes

Search period start: 28 September 2022 00:00
Search period end: 08 October 2022 00:00
Orbit: 427 x 468 km, 97.3° (Epoch: 27 September)

Date Brightness Start Highest point End Pass type
(mag) Time Alt. Az. Time Alt. Az. Time Alt. Az.
28 Sep 9.3 05:48:27 10° NE 05:50:58 20° E 05:53:26 10° SE visible
30 Sep 8.0 06:09:14 10° NNE 06:12:18 37° E 06:15:22 10° SSE visible
01 Oct 9.7 05:34:38 10° ENE 05:36:19 13° E 05:38:00 10° ESE visible
02 Oct 6.5 06:30:10 10° NNE 06:33:26 76° E 06:36:42 10° S visible
03 Oct 8.9 05:54:46 10° NE 05:57:29 24° E 06:00:12 10° SSE visible
05 Oct 7.6 06:15:16 10° NNE 06:18:26 45° E 06:21:35 10° S visible
06 Oct 9.6 05:40:12 10° NE 05:42:17 16° E 05:44:22 10° SE visible
07 Oct 6.3 06:35:52 10° NNE 06:39:10 89° W 06:42:26 10° SSW visible
